Location: Unspecified
(47.9110°N, 14.3980°E)
Time: 23:09:51
(UTC+00:00)

Cosmos 1975 - Pass Details

Date: 06 August 2020
Orbit: 542 x 561 km, 82.5° (Epoch: 23 September)

Event Time Altitude Azimuth Distance (km) Brightness Sun altitude
Exits shadow 23:09:09 40° 56° (NE) 823 3.9 -25.7°
Drops below altitude 10° 23:12:10 10° 20° (NNE) 1,836 6.4 -25.7°
Sets 23:14:23 0° 15° (NNE) 2,739 7.6 -25.7°
